When you browse on this site, cookies collect data to enhance your experience and personalize the content and advertising you see.
Visit our Privacy Policy to learn more. By continuing to use the site, you agree to this use of cookies and data.

Stündliche Wetter Tyt'kiv

Heute, 12 Juli, Sonntag

Zeit Temperatur Niederschläge Wind Luftdruck Luftfeuchtigkeit
00:00 +20°C° 0 mm 1 m/S 739 mmHg 87%
01:00 +19°C° 0 mm 1 m/S 739 mmHg 88%
02:00 +18°C° 0 mm 3 m/S 739 mmHg 95%
03:00 +18°C° 0 mm 3 m/S 739 mmHg 95%
04:00 +17°C° 0 mm 4 m/S 739 mmHg 95%
05:00 +17°C° 0 mm 4 m/S 739 mmHg 96%
06:00 +17°C° 0 mm 4 m/S 739 mmHg 95%
07:00 +15°C° 0 mm 4 m/S 739 mmHg 95%
08:00 +15°C° 0 mm 5 m/S 739 mmHg 92%
09:00 +15°C° 0 mm 5 m/S 739 mmHg 92%
10:00 +14°C° 0 mm 5 m/S 739 mmHg 92%
11:00 +14°C° 0 mm 5 m/S 740 mmHg 92%
12:00 +13°C° 0.3 mm 6 m/S 740 mmHg 92%
13:00 +12°C° 0.3 mm 7 m/S 740 mmHg 93%
14:00 +11°C° 0.3 mm 7 m/S 740 mmHg 93%
15:00 +11°C° 0.1 mm 7 m/S 740 mmHg 93%
16:00 +10°C° 0.1 mm 7 m/S 741 mmHg 93%
17:00 +10°C° 0.1 mm 6 m/S 741 mmHg 92%
18:00 +10°C° 0.6 mm 6 m/S 741 mmHg 93%
19:00 +10°C° 0.6 mm 6 m/S 741 mmHg 93%
20:00 +9°C° 0.6 mm 5 m/S 741 mmHg 94%
21:00 +9°C° 0.1 mm 5 m/S 741 mmHg 94%
22:00 +10°C° 0.1 mm 4 m/S 741 mmHg 94%
23:00 +10°C° 0.1 mm 4 m/S 741 mmHg 94%

Morgen, 13 Juli, Montag

Zeit Temperatur Niederschläge Wind Luftdruck Luftfeuchtigkeit
00:00 +10°C° 0 mm 4 m/S 741 mmHg 94%
01:00 +10°C° 0 mm 4 m/S 741 mmHg 94%
02:00 +10°C° 0 mm 4 m/S 741 mmHg 95%
03:00 +10°C° 0 mm 4 m/S 740 mmHg 95%
04:00 +8°C° 0 mm 4 m/S 740 mmHg 95%
05:00 +8°C° 0 mm 4 m/S 740 mmHg 95%
06:00 +10°C° 0 mm 5 m/S 740 mmHg 91%
07:00 +12°C° 0 mm 5 m/S 740 mmHg 87%
08:00 +14°C° 0 mm 5 m/S 740 mmHg 84%
09:00 +15°C° 0 mm 6 m/S 740 mmHg 78%
10:00 +16°C° 0 mm 6 m/S 740 mmHg 72%
11:00 +17°C° 0 mm 7 m/S 740 mmHg 67%
12:00 +18°C° 0.1 mm 7 m/S 740 mmHg 64%
13:00 +18°C° 0.1 mm 7 m/S 740 mmHg 61%
14:00 +18°C° 0.1 mm 7 m/S 740 mmHg 59%
15:00 +19°C° 0 mm 6 m/S 739 mmHg 60%
16:00 +19°C° 0 mm 6 m/S 739 mmHg 61%
17:00 +17°C° 0 mm 6 m/S 739 mmHg 63%
18:00 +16°C° 0 mm 5 m/S 738 mmHg 69%
19:00 +15°C° 0 mm 4 m/S 738 mmHg 76%
20:00 +13°C° 0 mm 3 m/S 738 mmHg 82%
21:00 +12°C° 0 mm 3 m/S 738 mmHg 85%
22:00 +12°C° 0 mm 3 m/S 738 mmHg 88%
23:00 +11°C° 0 mm 3 m/S 738 mmHg 92%

übermorgen, 14 Juli, Dienstag

Zeit Temperatur Niederschläge Wind Luftdruck Luftfeuchtigkeit
00:00 +10°C° 0 mm 3 m/S 738 mmHg 93%
01:00 +10°C° 0 mm 3 m/S 738 mmHg 94%
02:00 +10°C° 0 mm 3 m/S 738 mmHg 95%
03:00 +10°C° 0 mm 3 m/S 738 mmHg 95%
04:00 +9°C° 0 mm 3 m/S 738 mmHg 96%
05:00 +9°C° 0 mm 3 m/S 738 mmHg 96%
06:00 +11°C° 0 mm 4 m/S 738 mmHg 90%
07:00 +13°C° 0 mm 4 m/S 738 mmHg 85%
08:00 +15°C° 0 mm 4 m/S 738 mmHg 79%
09:00 +16°C° 0 mm 5 m/S 738 mmHg 74%
10:00 +17°C° 0 mm 5 m/S 738 mmHg 68%
11:00 +20°C° 0 mm 5 m/S 738 mmHg 63%
12:00 +20°C° 0.1 mm 5 m/S 738 mmHg 62%
13:00 +20°C° 0.1 mm 5 m/S 738 mmHg 62%
14:00 +21°C° 0.1 mm 5 m/S 738 mmHg 62%
15:00 +20°C° 0.1 mm 5 m/S 737 mmHg 64%
16:00 +20°C° 0.1 mm 5 m/S 737 mmHg 67%
17:00 +20°C° 0.1 mm 5 m/S 737 mmHg 70%
18:00 +18°C° 0.1 mm 4 m/S 737 mmHg 76%
19:00 +17°C° 0.1 mm 4 m/S 737 mmHg 82%
20:00 +14°C° 0.1 mm 3 m/S 737 mmHg 88%
21:00 +14°C° 0 mm 3 m/S 737 mmHg 90%
22:00 +13°C° 0 mm 3 m/S 737 mmHg 92%
23:00 +12°C° 0 mm 3 m/S 737 mmHg 94%

15 Juli, Mittwoch

Zeit Temperatur Niederschläge Wind Luftdruck Luftfeuchtigkeit
00:00 +12°C° 0 mm 3 m/S 738 mmHg 95%
01:00 +11°C° 0 mm 3 m/S 738 mmHg 95%
02:00 +11°C° 0 mm 3 m/S 738 mmHg 95%
03:00 +11°C° 0 mm 3 m/S 738 mmHg 95%
04:00 +11°C° 0 mm 3 m/S 737 mmHg 95%
05:00 +10°C° 0 mm 2 m/S 737 mmHg 95%
06:00 +12°C° 0 mm 3 m/S 738 mmHg 90%
07:00 +14°C° 0 mm 3 m/S 738 mmHg 85%
08:00 +17°C° 0 mm 3 m/S 738 mmHg 80%
09:00 +18°C° 0 mm 3 m/S 738 mmHg 74%
10:00 +19°C° 0 mm 3 m/S 738 mmHg 69%
11:00 +21°C° 0 mm 3 m/S 738 mmHg 64%
12:00 +21°C° 0 mm 3 m/S 738 mmHg 62%
13:00 +21°C° 0 mm 3 m/S 738 mmHg 61%
14:00 +22°C° 0 mm 3 m/S 738 mmHg 60%
15:00 +22°C° 0 mm 3 m/S 737 mmHg 60%
16:00 +22°C° 0 mm 3 m/S 737 mmHg 61%
17:00 +22°C° 0 mm 3 m/S 737 mmHg 61%
18:00 +20°C° 0 mm 2 m/S 737 mmHg 67%
19:00 +19°C° 0 mm 2 m/S 737 mmHg 73%
20:00 +18°C° 0 mm 1 m/S 737 mmHg 79%
21:00 +16°C° 0 mm 1 m/S 737 mmHg 81%
22:00 +15°C° 0 mm 1 m/S 737 mmHg 83%
23:00 +15°C° 0 mm 1 m/S 737 mmHg 85%

16 Juli, Donnerstag

Zeit Temperatur Niederschläge Wind Luftdruck Luftfeuchtigkeit
00:00 +14°C° 0 mm 1 m/S 737 mmHg 85%
01:00 +14°C° 0 mm 1 m/S 737 mmHg 85%
02:00 +14°C° 0 mm 1 m/S 737 mmHg 85%
03:00 +14°C° 0 mm 1 m/S 736 mmHg 85%
04:00 +14°C° 0 mm 1 m/S 736 mmHg 85%
05:00 +14°C° 0 mm 2 m/S 736 mmHg 85%
06:00 +16°C° 0 mm 2 m/S 736 mmHg 81%
07:00 +18°C° 0 mm 2 m/S 736 mmHg 77%
08:00 +19°C° 0 mm 2 m/S 736 mmHg 73%
09:00 +21°C° 0.3 mm 3 m/S 736 mmHg 71%
10:00 +22°C° 0.3 mm 3 m/S 736 mmHg 69%
11:00 +23°C° 0.3 mm 4 m/S 736 mmHg 67%
12:00 +23°C° 0.3 mm 4 m/S 736 mmHg 65%
13:00 +25°C° 0.3 mm 4 m/S 735 mmHg 63%
14:00 +25°C° 0.3 mm 4 m/S 735 mmHg 62%
15:00 +23°C° 0.9 mm 4 m/S 735 mmHg 67%
16:00 +22°C° 0.9 mm 4 m/S 735 mmHg 72%
17:00 +22°C° 0.9 mm 4 m/S 735 mmHg 77%
18:00 +20°C° 0.5 mm 3 m/S 735 mmHg 82%
19:00 +19°C° 0.5 mm 3 m/S 735 mmHg 87%
20:00 +17°C° 0.5 mm 3 m/S 735 mmHg 92%
21:00 +17°C° 0.1 mm 2 m/S 735 mmHg 93%
22:00 +17°C° 0.1 mm 2 m/S 735 mmHg 94%
23:00 +16°C° 0.1 mm 1 m/S 735 mmHg 95%

17 Juli, Freitag

Zeit Temperatur Niederschläge Wind Luftdruck Luftfeuchtigkeit
00:00 +16°C° 0.1 mm 1 m/S 735 mmHg 95%
01:00 +16°C° 0.1 mm 1 m/S 734 mmHg 94%
02:00 +16°C° 0.1 mm 1 m/S 734 mmHg 94%
03:00 +15°C° 0.8 mm 1 m/S 734 mmHg 95%
04:00 +15°C° 0.8 mm 1 m/S 734 mmHg 96%
05:00 +15°C° 0.8 mm 1 m/S 734 mmHg 97%
06:00 +15°C° 0.5 mm 1 m/S 734 mmHg 97%
07:00 +15°C° 0.5 mm 1 m/S 734 mmHg 96%
08:00 +15°C° 0.5 mm 1 m/S 734 mmHg 96%
09:00 +16°C° 0.1 mm 1 m/S 734 mmHg 91%
10:00 +18°C° 0.1 mm 1 m/S 734 mmHg 87%
11:00 +19°C° 0.1 mm 1 m/S 734 mmHg 82%
12:00 +20°C° 0.3 mm 1 m/S 734 mmHg 78%
13:00 +21°C° 0.3 mm 1 m/S 734 mmHg 75%
14:00 +21°C° 0.3 mm 2 m/S 734 mmHg 71%
15:00 +21°C° 0.6 mm 2 m/S 734 mmHg 72%
16:00 +21°C° 0.6 mm 2 m/S 734 mmHg 74%
17:00 +20°C° 0.6 mm 2 m/S 734 mmHg 75%
18:00 +19°C° 0.7 mm 2 m/S 734 mmHg 79%
19:00 +18°C° 0.7 mm 2 m/S 734 mmHg 83%
20:00 +18°C° 0.7 mm 1 m/S 734 mmHg 88%
21:00 +16°C° 0 mm 2 m/S 734 mmHg 89%
22:00 +16°C° 0 mm 2 m/S 734 mmHg 91%
23:00 +15°C° 0 mm 2 m/S 734 mmHg 92%
Mehr zeigen